When you browse on this site, cookies collect data to enhance your experience and personalize the content and advertising you see.
Visit our Privacy Policy to learn more. By continuing to use the site, you agree to this use of cookies and data.

Hourly Weather Klagenfurt

Today, 8 August, Saturday

Time Temperature Precipitation Wind Pressure Humidity
00:00 +18°C° 0 mm 1 mps 694 mmHg 77%
01:00 +18°C° 0 mm 1 mps 694 mmHg 74%
02:00 +16°C° 0 mm 1 mps 694 mmHg 75%
03:00 +16°C° 0 mm 1 mps 694 mmHg 77%
04:00 +16°C° 0 mm 1 mps 693 mmHg 79%
05:00 +18°C° 0 mm 1 mps 694 mmHg 76%
06:00 +19°C° 0 mm 1 mps 694 mmHg 74%
07:00 +21°C° 0 mm 1 mps 694 mmHg 70%
08:00 +23°C° 0 mm 1 mps 695 mmHg 63%
09:00 +25°C° 0 mm 1 mps 695 mmHg 55%
10:00 +27°C° 0 mm 1 mps 695 mmHg 48%
11:00 +28°C° 0 mm 1 mps 695 mmHg 46%
12:00 +28°C° 0 mm 1 mps 695 mmHg 44%
13:00 +29°C° 0 mm 1 mps 695 mmHg 43%
14:00 +29°C° 0 mm 1 mps 695 mmHg 45%
15:00 +28°C° 0 mm 1 mps 694 mmHg 47%
16:00 +28°C° 0 mm 1 mps 694 mmHg 49%
17:00 +26°C° 0 mm 1 mps 694 mmHg 58%
18:00 +22°C° 0 mm 0 mps 693 mmHg 67%
19:00 +20°C° 0 mm 0 mps 693 mmHg 76%
20:00 +19°C° 0 mm 0 mps 693 mmHg 77%
21:00 +20°C° 0 mm 1 mps 693 mmHg 78%
22:00 +19°C° 0 mm 1 mps 693 mmHg 79%
23:00 +19°C° 0 mm 1 mps 693 mmHg 80%

Tomorrow, 9 August, Sunday

Time Temperature Precipitation Wind Pressure Humidity
00:00 +19°C° 0 mm 1 mps 693 mmHg 81%
01:00 +18°C° 0 mm 1 mps 693 mmHg 82%
02:00 +18°C° 0 mm 1 mps 693 mmHg 82%
03:00 +18°C° 0 mm 1 mps 692 mmHg 83%
04:00 +16°C° 0 mm 1 mps 692 mmHg 84%
05:00 +19°C° 0 mm 1 mps 692 mmHg 82%
06:00 +20°C° 0 mm 1 mps 693 mmHg 79%
07:00 +19°C° 0 mm 0 mps 693 mmHg 77%
08:00 +23°C° 0 mm 1 mps 693 mmHg 69%
09:00 +25°C° 0 mm 1 mps 694 mmHg 62%
10:00 +27°C° 0 mm 1 mps 694 mmHg 55%
11:00 +28°C° 0.1 mm 1 mps 694 mmHg 52%
12:00 +28°C° 0.1 mm 1 mps 694 mmHg 49%
13:00 +29°C° 0.1 mm 1 mps 693 mmHg 46%
14:00 +28°C° 0.2 mm 1 mps 693 mmHg 49%
15:00 +28°C° 0.2 mm 1 mps 693 mmHg 53%
16:00 +27°C° 0.2 mm 1 mps 693 mmHg 56%
17:00 +25°C° 0.2 mm 1 mps 692 mmHg 64%
18:00 +23°C° 0.2 mm 1 mps 692 mmHg 72%
19:00 +19°C° 0.2 mm 0 mps 691 mmHg 80%
20:00 +21°C° 0 mm 1 mps 692 mmHg 81%
21:00 +20°C° 0 mm 1 mps 692 mmHg 81%
22:00 +19°C° 0 mm 1 mps 692 mmHg 82%
23:00 +19°C° 0 mm 1 mps 692 mmHg 83%

Day after tomorrow, 10 August, Monday

Time Temperature Precipitation Wind Pressure Humidity
00:00 +18°C° 0 mm 1 mps 691 mmHg 83%
01:00 +18°C° 0 mm 1 mps 691 mmHg 84%
02:00 +18°C° 0 mm 1 mps 691 mmHg 85%
03:00 +16°C° 0 mm 1 mps 691 mmHg 86%
04:00 +16°C° 0 mm 1 mps 691 mmHg 86%
05:00 +18°C° 0 mm 1 mps 691 mmHg 84%
06:00 +19°C° 0 mm 1 mps 691 mmHg 82%
07:00 +19°C° 0 mm 0 mps 691 mmHg 79%
08:00 +23°C° 0 mm 1 mps 692 mmHg 71%
09:00 +25°C° 0 mm 1 mps 692 mmHg 63%
10:00 +27°C° 0 mm 1 mps 693 mmHg 54%
11:00 +28°C° 0.1 mm 1 mps 692 mmHg 53%
12:00 +28°C° 0.1 mm 1 mps 692 mmHg 52%
13:00 +29°C° 0.1 mm 1 mps 692 mmHg 51%
14:00 +28°C° 0.2 mm 1 mps 692 mmHg 51%
15:00 +28°C° 0.2 mm 1 mps 692 mmHg 52%
16:00 +28°C° 0.2 mm 1 mps 692 mmHg 52%
17:00 +26°C° 0.1 mm 1 mps 691 mmHg 62%
18:00 +24°C° 0.1 mm 1 mps 691 mmHg 71%
19:00 +22°C° 0.1 mm 1 mps 690 mmHg 80%
20:00 +21°C° 0.1 mm 1 mps 691 mmHg 81%
21:00 +20°C° 0.1 mm 1 mps 691 mmHg 82%
22:00 +20°C° 0.1 mm 1 mps 691 mmHg 83%
23:00 +19°C° 0 mm 1 mps 691 mmHg 84%

11 August, Tuesday

Time Temperature Precipitation Wind Pressure Humidity
00:00 +19°C° 0 mm 1 mps 691 mmHg 86%
01:00 +18°C° 0 mm 1 mps 691 mmHg 87%
02:00 +18°C° 0 mm 1 mps 691 mmHg 87%
03:00 +18°C° 0 mm 1 mps 691 mmHg 88%
04:00 +18°C° 0 mm 1 mps 690 mmHg 89%
05:00 +17°C° 0 mm 0 mps 691 mmHg 87%
06:00 +18°C° 0 mm 0 mps 691 mmHg 84%
07:00 +19°C° 0 mm 0 mps 691 mmHg 82%
08:00 +21°C° 0 mm 0 mps 692 mmHg 74%
09:00 +24°C° 0 mm 0 mps 692 mmHg 66%
10:00 +28°C° 0 mm 1 mps 693 mmHg 58%
11:00 +28°C° 0.3 mm 1 mps 693 mmHg 56%
12:00 +28°C° 0.3 mm 1 mps 693 mmHg 55%
13:00 +29°C° 0.3 mm 1 mps 692 mmHg 54%
14:00 +29°C° 0.5 mm 1 mps 692 mmHg 55%
15:00 +28°C° 0.5 mm 1 mps 692 mmHg 56%
16:00 +28°C° 0.5 mm 1 mps 692 mmHg 57%
17:00 +26°C° 0.2 mm 1 mps 692 mmHg 64%
18:00 +24°C° 0.2 mm 1 mps 691 mmHg 72%
19:00 +22°C° 0.2 mm 1 mps 691 mmHg 80%
20:00 +22°C° 0.7 mm 1 mps 691 mmHg 81%
21:00 +21°C° 0.7 mm 1 mps 691 mmHg 83%
22:00 +20°C° 0.7 mm 1 mps 691 mmHg 85%
23:00 +17°C° 0.4 mm 0 mps 691 mmHg 87%

12 August, Wednesday

Time Temperature Precipitation Wind Pressure Humidity
00:00 +17°C° 0.4 mm 0 mps 691 mmHg 89%
01:00 +16°C° 0.4 mm 0 mps 691 mmHg 90%
02:00 +16°C° 0.7 mm 0 mps 690 mmHg 91%
03:00 +16°C° 0.7 mm 0 mps 690 mmHg 92%
04:00 +15°C° 0.7 mm 0 mps 690 mmHg 93%
05:00 +16°C° 0.5 mm 0 mps 690 mmHg 93%
06:00 +17°C° 0.5 mm 0 mps 691 mmHg 92%
07:00 +18°C° 0.5 mm 0 mps 691 mmHg 91%
08:00 +21°C° 0.4 mm 1 mps 691 mmHg 86%
09:00 +23°C° 0.4 mm 1 mps 691 mmHg 81%
10:00 +25°C° 0.4 mm 1 mps 692 mmHg 76%
11:00 +25°C° 1.4 mm 1 mps 692 mmHg 76%
12:00 +25°C° 1.4 mm 1 mps 692 mmHg 76%
13:00 +26°C° 1.4 mm 1 mps 692 mmHg 75%
14:00 +26°C° 0.8 mm 1 mps 691 mmHg 74%
15:00 +26°C° 0.8 mm 1 mps 691 mmHg 73%
16:00 +26°C° 0.8 mm 1 mps 691 mmHg 71%
17:00 +24°C° 0.5 mm 1 mps 691 mmHg 77%
18:00 +22°C° 0.5 mm 1 mps 691 mmHg 84%
19:00 +21°C° 0.5 mm 1 mps 691 mmHg 90%
20:00 +20°C° 0 mm 1 mps 691 mmHg 91%
21:00 +19°C° 0 mm 1 mps 691 mmHg 92%
22:00 +19°C° 0 mm 1 mps 691 mmHg 92%
23:00 +17°C° 0 mm 0 mps 691 mmHg 93%

13 August, Thursday

Time Temperature Precipitation Wind Pressure Humidity
00:00 +16°C° 0 mm 0 mps 691 mmHg 93%
01:00 +16°C° 0 mm 0 mps 690 mmHg 93%
02:00 +16°C° 0 mm 0 mps 690 mmHg 93%
03:00 +15°C° 0 mm 0 mps 690 mmHg 94%
04:00 +15°C° 0 mm 0 mps 690 mmHg 94%
05:00 +16°C° 0 mm 0 mps 690 mmHg 93%
06:00 +17°C° 0 mm 0 mps 690 mmHg 92%
07:00 +18°C° 0 mm 0 mps 691 mmHg 91%
08:00 +20°C° 0.1 mm 0 mps 691 mmHg 82%
09:00 +22°C° 0.1 mm 0 mps 691 mmHg 74%
10:00 +26°C° 0.1 mm 1 mps 692 mmHg 66%
11:00 +27°C° 0.4 mm 1 mps 692 mmHg 65%
12:00 +27°C° 0.4 mm 1 mps 692 mmHg 64%
13:00 +28°C° 0.4 mm 1 mps 692 mmHg 63%
14:00 +26°C° 1.5 mm 1 mps 692 mmHg 70%
15:00 +25°C° 1.5 mm 1 mps 691 mmHg 78%
16:00 +23°C° 1.5 mm 1 mps 691 mmHg 85%
17:00 +22°C° 0.8 mm 1 mps 691 mmHg 88%
18:00 +21°C° 0.8 mm 1 mps 691 mmHg 90%
19:00 +20°C° 0.8 mm 1 mps 691 mmHg 93%
20:00 +19°C° 0.1 mm 1 mps 691 mmHg 92%
21:00 +19°C° 0.1 mm 1 mps 691 mmHg 92%
22:00 +18°C° 0.1 mm 1 mps 691 mmHg 91%
23:00 +18°C° 0 mm 1 mps 691 mmHg 91%
Show more